Temperature
18 19 20 20 23 23 22 23 23 23 23 22 21 22 23 23 23 22 20 20 20 19 18 17 16 15 14 13 12 12 11 11 11 10 10 10 10 9 9 9 9 9 9 9 9 10 10 10 11
18 19 19 21 23 22 22 23 23 23 22 21 21 21 22 23 21 20 20 20 20 19 18 17 16 15 14 13 13 12 12 11 11 10 10 10 9 9 9 9 9 9 9 9 9 9 10 10 11
19 19 21 23 22 22 22 23 23 22 21 21 22 21 22 22 21 20 20 20 20 19 18 17 16 15 14 13 13 12 12 11 11 10 10 10 9 9 9 9 9 9 9 9 9 9 9 10 10
19 19 22 23 22 22 22 23 22 22 21 20 21 22 21 21 20 20 20 20 19 19 18 17 16 15 15 14 13 12 12 11 11 10 10 10 9 9 9 9 9 9 9 9 9 9 9 9 10
19 21 22 22 22 22 23 22 21 22 22 21 21 22 22 21 21 20 20 20 19 19 18 17 16 15 14 13 13 12 12 11 11 10 10 10 9 9 9 9 9 9 9 9 9 9 9 9 9
20 22 22 22 22 22 23 21 21 22 22 21 21 22 22 21 20 20 20 19 19 18 18 17 16 15 14 13 13 12 12 11 11 10 10 10 9 9 9 9 9 9 9 9 9 9 9 9 9
21 22 22 22 21 22 22 21 22 22 22 22 21 22 22 20 20 20 19 19 18 18 17 16 15 14 13 13 12 12 11 11 10 10 10 9 9 9 9 9 9 9 9 9 9 9 9 9 9
20 22 21 21 21 22 22 20 20 21 22 20 20 22 22 20 20 19 19 19 18 18 17 16 15 14 13 12 12 11 11 10 10 10 10 9 9 9 9 9 9 9 9 9 9 9 9 9 9
19 21 21 21 21 22 21 21 21 19 20 20 19 20 20 19 19 19 18 18 18 18 17 16 14 13 13 12 11 11 10 10 10 9 9 9 9 8 8 8 9 9 9 8 9 9 9 9 9
20 21 21 21 21 22 21 20 20 20 20 21 20 19 19 19 18 18 18 17 18 18 17 16 15 14 13 12 11 10 10 10 9 9 9 9 8 8 8 8 9 9 8 8 8 8 8 8 8
20 21 21 20 19 19 20 20 19 20 21 21 20 19 18 18 18 18 17 17 16 16 16 16 15 14 13 12 11 10 10 9 9 9 9 9 8 9 9 8 8 8 8 8 8 8 8 8 8
20 20 19 19 18 18 19 19 19 19 19 18 17 17 17 17 17 17 17 16 16 16 16 16 15 14 13 12 11 11 10 10 10 9 9 9 9 9 9 9 8 8 8 8 8 8 8 8 8
19 19 18 17 17 17 17 18 18 18 17 16 16 16 16 16 17 17 17 16 16 17 16 16 15 15 14 12 12 11 11 10 10 10 10 9 9 9 9 9 8 8 8 8 8 8 8 8 8
19 18 18 18 17 16 17 18 17 18 16 16 15 15 15 16 16 17 17 17 17 17 16 16 15 14 14 13 12 11 11 10 10 10 10 9 9 9 8 8 8 8 8 8 8 7 7 7 8
17 18 20 19 17 17 17 19 19 17 16 16 16 15 15 15 16 17 17 18 17 17 17 16 15 14 14 13 12 11 10 10 10 10 9 9 9 8 8 8 8 8 8 8 7 7 7 7 7
18 19 20 19 18 17 18 20 19 16 16 17 16 15 15 15 15 16 17 18 18 17 17 16 15 14 13 13 12 11 10 10 9 9 9 9 8 8 8 8 8 7 7 7 7 7 7 7 7
19 20 20 20 18 18 19 20 20 16 16 17 16 15 15 14 15 16 17 17 17 17 17 16 15 14 13 12 11 11 10 10 9 9 9 9 8 8 8 7 7 7 7 7 7 7 6 6 6
19 19 19 19 19 18 18 19 19 16 16 17 16 15 14 14 14 15 16 17 17 16 16 15 15 14 13 12 11 11 10 10 10 9 9 9 9 8 8 8 7 7 7 7 7 7 6 6 6
18 18 19 19 17 17 18 18 18 16 16 16 16 15 14 13 13 15 15 16 16 16 15 15 14 14 13 12 12 11 11 11 10 10 10 9 9 9 8 8 8 7 7 7 7 6 6 6 5
17 17 18 18 16 16 17 18 17 16 16 16 16 15 14 13 13 14 14 15 15 15 15 14 14 13 13 12 12 12 11 11 11 10 10 10 9 9 8 8 8 7 7 7 7 6 6 6 5
17 17 18 18 17 16 16 18 17 16 15 14 14 14 13 13 13 13 14 14 14 14 14 14 13 13 13 12 12 12 11 11 11 10 10 10 9 9 9 8 8 8 7 7 7 7 6 6 5
17 17 17 16 17 19 17 19 18 17 16 16 15 14 13 12 12 13 13 14 14 13 13 13 13 12 12 12 12 11 11 10 10 10 10 9 9 9 9 8 8 8 7 7 7 7 6 5 5
17 15 15 16 17 17 17 18 20 17 17 17 16 14 13 12 12 12 13 13 13 13 13 12 12 12 12 11 11 11 10 10 10 9 9 9 9 8 8 8 8 7 7 7 7 6 6 5 5
14 15 14 15 16 17 18 18 19 18 18 18 16 14 13 12 12 12 12 12 12 12 12 12 12 11 11 11 11 10 10 9 9 9 8 8 8 8 7 7 7 7 7 7 6 6 6 6 5
15 17 18 18 17 18 16 16 19 19 18 18 17 15 13 12 11 11 11 12 12 12 11 11 11 11 11 10 10 9 9 8 8 8 7 7 7 7 7 7 6 6 6 6 6 6 6 5 5
16 17 18 18 19 19 15 16 19 16 15 15 16 15 13 11 11 11 11 11 11 11 11 11 11 10 10 9 9 8 8 8 7 7 7 7 6 6 6 6 6 6 6 6 5 5 5 5 4
16 16 17 18 16 17 18 18 18 15 14 13 14 13 12 11 11 11 11 11 11 11 10 10 10 10 9 9 8 8 7 7 7 6 6 6 6 6 6 6 6 5 5 5 5 4 4 4 3
15 16 16 17 17 17 18 18 19 17 16 14 14 13 12 11 10 10 10 10 10 10 10 10 9 9 8 8 8 7 7 6 6 6 6 6 5 5 5 5 5 5 5 4 4 4 3 3 2
14 15 16 17 17 17 18 19 18 18 17 15 15 14 12 11 10 10 10 10 10 10 9 9 9 8 8 7 7 6 6 6 6 5 5 5 5 5 5 4 4 4 4 3 3 3 2 2 1
16 16 16 17 17 16 17 18 16 16 16 15 14 13 12 10 10 9 9 9 9 9 9 8 8 8 7 7 6 6 6 5 5 5 5 4 4 4 4 4 4 3 3 3 2 1 1 0 0
Wind_Speed
1 2 2 3 4 4 4 1 1 2 1 0 1 2 4 5 5 4 3 8 8 16 23 24 23 21 19 17 16 14 13 12 11 10 10 10 10 10 11 11 11 11 11 11 11 11 12 12 12
2 2 3 4 5 6 4 1 1 4 2 1 3 4 4 3 2 2 3 9 10 17 22 23 24 22 20 18 17 15 14 13 11 11 10 9 9 10 10 10 10 10 10 10 10 10 10 11 11
3 3 4 5 7 5 3 1 4 4 2 3 3 3 4 3 1 1 3 10 12 17 21 22 25 23 21 19 18 16 15 13 12 11 10 9 9 9 9 9 9 9 9 9 9 9 9 9 9
3 4 4 6 7 4 3 2 4 4 1 3 3 3 3 1 1 3 3 11 13 17 20 21 25 23 21 20 18 17 15 14 13 11 10 9 9 9 8 8 8 8 7 7 8 8 8 8 8
3 4 7 8 6 3 3 4 3 3 1 2 4 5 4 3 2 2 3 10 13 16 19 21 24 23 21 20 19 17 16 15 14 12 11 10 9 9 8 8 7 6 6 6 6 6 7 7 7
3 5 7 9 8 5 5 3 3 4 2 2 4 5 4 4 2 1 4 9 11 14 17 19 23 22 21 20 19 18 17 15 14 13 12 11 10 9 8 8 7 6 5 5 5 5 5 5 5
3 6 8 8 8 7 4 2 4 4 5 4 3 5 4 4 3 1 4 8 10 14 16 17 21 21 21 20 19 18 17 16 15 13 12 11 10 10 9 8 7 6 5 4 3 3 3 3 3
1 4 8 8 9 8 3 3 3 5 6 1 3 6 5 3 3 3 5 7 10 12 15 16 18 19 19 19 19 18 17 16 15 13 12 11 10 10 9 9 8 7 5 4 3 2 2 1 1
2 7 10 9 8 7 3 4 3 3 6 5 6 8 4 2 2 4 6 8 10 12 14 16 17 17 17 17 17 17 17 16 15 13 12 11 10 10 9 9 8 8 7 6 5 5 4 3 2
4 9 11 6 7 7 5 6 6 6 9 9 8 7 3 3 4 7 9 11 13 15 16 15 16 16 16 15 15 15 15 15 14 13 13 12 10 8 7 8 9 8 7 7 7 6 6 7 5
4 8 7 6 6 6 6 7 5 7 11 9 10 10 5 6 7 9 10 11 12 13 14 15 15 15 15 13 13 12 12 12 13 13 12 11 9 8 8 8 9 9 8 8 6 8 7 7 7
5 6 6 5 2 4 7 6 7 9 9 7 7 8 6 7 8 9 10 10 10 12 14 15 16 15 15 14 13 12 11 11 11 12 12 11 9 9 9 9 9 8 8 8 9 9 9 10 10
7 6 5 6 6 7 9 11 10 9 6 5 4 3 5 6 6 6 8 8 10 12 13 15 16 16 15 14 12 12 12 12 12 11 12 13 10 10 10 10 10 10 10 10 10 11 11 12 12
3 6 8 9 10 5 6 6 5 4 1 1 2 3 4 5 6 4 4 7 10 12 12 13 15 16 16 13 12 12 12 12 12 12 14 15 13 12 11 11 11 12 12 12 12 13 12 12 12
3 7 9 5 3 3 4 6 5 1 1 1 3 4 6 7 6 5 3 3 7 9 10 12 13 15 15 15 14 12 12 12 12 12 14 15 15 14 13 12 12 13 13 14 13 14 13 12 12
4 5 5 3 1 2 4 5 4 2 1 1 3 5 7 9 10 8 6 2 3 6 8 10 9 12 13 13 12 11 11 12 12 12 13 15 17 16 15 13 13 14 13 13 12 11 11 12 12
5 5 4 3 2 2 5 7 3 1 2 1 3 6 8 10 12 11 9 7 6 6 7 8 9 9 10 11 10 10 10 11 11 11 12 14 16 17 16 14 14 15 13 12 11 11 12 13 13
5 5 5 5 2 4 8 10 5 3 3 5 7 8 9 10 11 11 11 10 9 8 7 7 7 7 7 6 6 6 7 8 10 11 12 14 14 15 16 14 16 15 11 11 12 13 13 13 13
5 7 9 7 2 4 8 9 6 1 6 8 9 9 10 10 10 11 12 12 11 10 9 7 7 6 6 5 5 5 6 7 7 10 13 14 14 15 14 13 14 13 11 13 14 13 14 13 11
8 9 10 6 2 4 7 9 2 4 7 8 10 10 10 11 12 12 12 13 12 11 10 8 7 6 6 4 4 3 3 4 6 7 10 12 13 14 14 14 12 12 11 14 14 14 12 10 9
10 11 9 5 2 3 5 4 6 6 7 7 8 8 10 10 12 12 12 13 12 11 9 7 7 5 4 4 3 2 3 3 4 5 5 8 11 12 13 14 13 12 12 12 13 13 14 12 11
9 7 8 5 5 4 3 4 8 11 11 10 10 10 10 10 11 11 12 12 11 10 8 8 7 6 4 4 3 3 2 3 3 4 4 6 7 9 11 12 13 12 11 13 13 13 12 13 12
3 3 4 4 5 6 5 6 6 12 16 16 13 12 11 10 10 11 10 10 10 9 8 8 8 7 5 3 1 2 3 4 4 4 5 5 5 6 8 10 11 11 10 13 13 13 14 12 14
7 5 3 2 4 6 5 7 6 12 19 20 17 14 12 11 10 10 9 9 9 8 8 7 8 7 5 3 2 1 2 4 5 5 5 5 4 4 6 8 9 10 10 12 12 13 15 14 16
6 5 4 5 5 4 3 6 6 7 11 18 19 17 14 12 11 10 10 9 8 8 7 6 7 6 5 4 3 2 2 4 5 6 6 6 6 5 6 6 8 9 10 11 12 13 14 15 17
9 7 6 4 3 1 4 7 2 4 4 8 14 16 14 13 11 10 9 8 8 7 6 6 6 5 4 3 3 2 2 3 4 5 6 6 6 7 8 9 9 11 12 12 12 12 14 14 16
7 7 3 3 1 5 5 5 5 4 6 9 14 16 15 14 12 11 9 8 7 6 5 5 4 3 3 2 2 3 3 4 5 6 6 6 7 8 10 10 11 12 12 13 13 12 15 15 16
2 5 5 5 5 5 5 6 4 8 10 12 16 18 16 14 12 11 9 8 6 5 4 3 3 2 2 3 3 3 5 5 6 7 8 9 10 10 11 12 13 13 14 14 14 14 15 16 17
7 6 5 4 4 5 5 4 1 5 8 12 15 16 17 15 13 11 9 7 6 5 4 3 2 2 2 3 4 5 6 6 7 8 9 10 11 12 12 13 14 15 15 15 15 16 17 18 18
8 8 9 7 6 5 5 5 3 4 6 9 12 14 14 13 11 10 9 7 6 4 3 1 1 2 3 4 5 6 7 8 9 10 10 11 12 12 13 14 15 16 16 16 17 18 18 19 19
Wind_Direction
239 240 225 221 219 227 225 173 311 337 301 360 263 253 312 341 348 359 68 154 150 160 166 171 171 169 168 167 164 160 155 151 147 140 131 124 119 113 106 99 93 88 84 80 77 75 74 72 72
220 212 210 219 233 221 190 175 322 343 345 221 211 230 263 294 292 330 115 159 162 163 167 171 171 171 171 170 167 164 161 158 154 148 140 133 126 119 110 104 98 93 87 83 80 77 76 74 73
184 231 210 208 229 232 189 116 351 343 291 235 218 231 284 320 212 60 74 160 165 167 171 171 171 173 173 173 170 168 165 164 160 153 148 143 137 128 119 112 105 98 92 87 84 81 80 77 75
198 192 207 224 219 224 252 316 341 327 198 217 247 248 238 268 27 48 100 163 168 170 173 171 174 175 176 175 174 172 171 170 167 162 158 155 148 139 131 122 114 107 100 93 86 83 82 81 77
218 205 209 222 227 230 260 313 312 305 257 201 241 274 278 128 87 53 144 169 174 172 174 173 177 178 178 178 177 176 176 175 173 170 168 165 159 149 142 134 128 121 112 102 93 85 82 82 80
190 212 223 228 234 247 264 259 259 269 255 228 239 273 282 115 100 77 160 176 178 174 175 174 179 181 182 182 181 181 181 180 179 177 175 173 169 162 156 152 147 140 129 118 107 95 83 79 81
217 223 240 248 255 261 268 222 248 270 265 256 242 273 271 136 69 96 162 175 179 178 179 178 181 184 186 187 186 185 185 185 185 183 182 181 177 174 172 168 164 160 153 143 129 113 97 83 80
254 234 242 249 258 269 252 209 244 267 286 294 232 264 284 89 80 127 154 174 181 183 186 184 184 186 188 190 191 190 189 190 190 189 188 186 185 187 184 183 180 180 178 176 173 163 146 106 75
234 242 249 254 260 271 220 238 255 250 265 243 237 268 332 81 140 167 173 183 188 191 193 191 188 188 189 192 191 192 193 195 195 195 192 192 198 197 193 193 187 196 199 202 207 209 211 212 212
222 245 254 257 254 268 260 265 282 261 260 261 256 252 246 229 221 218 212 202 197 196 195 194 194 190 190 191 191 195 196 198 202 203 198 201 205 203 201 178 195 209 215 218 223 225 226 231 235
229 251 264 251 249 265 271 272 263 265 273 280 288 298 285 256 243 239 234 223 210 200 196 199 197 194 193 192 195 196 197 200 206 208 203 200 201 202 208 206 204 213 218 226 221 228 234 240 246
242 253 258 264 228 246 266 275 267 257 276 314 304 302 295 276 263 250 243 231 213 204 200 200 198 198 199 197 198 199 198 199 204 206 206 203 206 213 216 221 223 223 224 231 236 241 243 247 249
245 264 256 254 254 261 266 265 273 269 292 308 306 310 313 307 294 272 252 236 216 208 202 201 200 200 201 204 204 204 206 205 205 204 207 211 215 221 223 229 230 234 236 237 242 246 250 251 254
264 265 273 276 268 248 251 260 234 249 357 1 16 12 358 348 335 314 257 229 217 209 203 198 201 202 202 206 209 210 212 211 214 212 215 217 224 228 230 236 237 241 241 245 248 252 256 257 256
265 280 278 250 233 211 235 251 210 157 278 4 44 46 36 24 16 6 336 240 216 205 199 196 199 203 205 210 214 218 218 218 219 221 223 223 228 233 236 242 243 245 246 247 250 256 259 261 261
241 255 252 174 211 187 242 260 149 98 322 11 56 63 56 46 39 33 32 63 160 176 183 187 191 202 207 211 215 220 224 226 228 229 231 231 234 237 240 244 248 250 250 248 249 253 255 257 259
230 244 243 215 178 224 248 266 180 315 293 168 106 87 73 61 47 42 49 68 96 131 153 169 183 195 203 210 216 223 229 232 236 236 237 238 239 240 241 247 252 254 250 249 251 254 256 262 264
239 239 249 257 209 266 263 265 281 309 221 157 126 108 87 68 52 49 59 71 84 99 120 140 160 177 184 194 209 220 232 238 240 241 243 244 243 242 244 249 253 255 250 250 252 255 258 260 268
257 255 264 272 290 274 266 276 292 273 165 149 134 118 99 83 73 69 70 77 83 89 99 115 134 152 165 173 190 211 228 235 239 243 247 247 247 246 245 249 254 251 249 252 256 258 261 261 264
235 252 263 269 214 266 283 283 263 160 155 147 138 124 113 105 91 79 78 78 79 83 89 100 115 137 159 172 185 212 240 253 258 255 254 253 252 251 248 249 252 252 252 255 257 257 257 260 251
229 240 256 268 267 227 286 243 170 156 146 142 139 129 121 113 105 95 86 82 81 78 79 89 100 120 146 166 179 196 232 253 254 258 262 262 259 256 252 253 255 256 254 256 257 254 250 254 255
245 237 239 243 264 258 270 260 183 173 171 167 158 148 134 124 115 106 98 89 83 81 83 87 93 102 121 155 186 215 254 282 301 302 290 285 272 263 258 257 257 258 256 256 257 254 252 251 256
221 115 175 220 249 270 229 245 198 179 188 184 173 160 148 137 127 116 107 101 94 90 89 90 92 92 100 124 164 243 279 300 308 308 300 298 288 273 266 262 261 259 258 258 259 257 253 247 248
142 127 115 168 226 250 219 223 219 193 200 187 178 171 162 151 140 128 120 115 106 100 94 93 93 89 89 94 92 346 320 317 318 319 317 313 304 291 277 269 264 262 260 260 260 259 256 252 250
184 206 230 222 217 234 158 232 250 187 196 192 183 177 170 163 156 147 141 132 121 109 101 98 94 88 83 81 68 37 344 324 318 320 318 314 309 303 300 285 274 269 264 263 263 261 259 256 253
196 219 239 261 254 239 195 240 243 136 172 197 189 179 173 171 167 159 151 142 131 120 112 104 95 87 75 63 46 19 347 322 318 315 310 306 303 302 302 293 283 278 274 269 265 264 261 260 257
177 208 249 265 281 271 244 256 261 174 195 193 188 182 181 178 173 166 157 149 139 130 118 106 98 85 62 36 8 349 334 320 314 309 302 298 297 299 296 293 288 283 279 275 273 267 267 265 262
245 161 167 210 242 252 252 248 236 194 194 184 185 186 183 178 174 168 163 155 145 135 123 109 90 64 30 2 350 329 321 316 309 303 301 300 300 298 295 294 291 288 284 280 276 273 272 271 268
166 183 204 205 245 253 263 249 195 203 189 185 186 186 182 179 176 172 165 157 149 142 131 110 79 32 356 342 331 321 318 314 308 302 301 301 300 299 296 295 293 290 288 285 281 277 277 274 273
217 209 196 217 225 230 263 271 112 204 195 190 183 179 177 175 173 169 164 160 157 149 134 98 33 351 338 329 321 317 313 309 305 303 303 302 300 298 296 294 291 289 287 285 283 281 279 277 275
Height
1549 1551 1553 1555 1554 1553 1553 1551 1550 1550 1551 1553 1554 1554 1552 1551 1552 1556 1554 1551 1551 1551 1552 1553 1555 1557 1559 1560 1561 1563 1563 1564 1565 1566 1566 1566 1566 1566 1566 1566 1565 1565 1565 1564 1564 1563 1563 1562 1562
1549 1551 1555 1555 1552 1555 1554 1550 1550 1550 1552 1554 1554 1554 1552 1551 1553 1553 1552 1551 1551 1552 1552 1554 1555 1557 1558 1560 1561 1563 1564 1564 1565 1566 1566 1567 1567 1567 1567 1566 1566 1566 1565 1565 1564 1564 1564 1563 1563
1550 1551 1555 1551 1551 1552 1552 1549 1549 1551 1553 1553 1552 1553 1552 1551 1552 1552 1551 1551 1551 1551 1552 1554 1555 1557 1558 1560 1561 1563 1564 1565 1566 1566 1567 1567 1567 1567 1567 1567 1567 1566 1566 1565 1565 1565 1564 1564 1564
1551 1553 1553 1549 1551 1549 1549 1548 1551 1550 1551 1552 1552 1550 1551 1551 1551 1551 1550 1550 1551 1551 1552 1553 1555 1556 1558 1560 1561 1563 1564 1565 1566 1566 1567 1567 1568 1568 1568 1567 1567 1567 1567 1566 1566 1565 1565 1565 1564
1551 1551 1549 1550 1550 1549 1549 1551 1551 1549 1549 1551 1551 1549 1549 1549 1549 1549 1549 1550 1550 1551 1552 1553 1554 1556 1558 1559 1561 1562 1564 1565 1566 1567 1567 1568 1568 1568 1568 1568 1568 1567 1567 1567 1567 1566 1566 1565 1565
1552 1549 1549 1550 1548 1548 1548 1550 1551 1549 1549 1550 1550 1548 1547 1547 1547 1548 1548 1548 1549 1550 1551 1552 1553 1555 1557 1559 1561 1562 1563 1565 1566 1567 1567 1568 1568 1569 1569 1568 1568 1568 1568 1567 1567 1567 1567 1566 1566
1551 1548 1548 1548 1548 1547 1548 1549 1549 1547 1547 1548 1548 1547 1545 1546 1546 1546 1546 1546 1547 1548 1549 1551 1552 1554 1556 1558 1560 1561 1563 1564 1565 1566 1567 1568 1569 1569 1569 1569 1568 1568 1568 1568 1568 1567 1567 1567 1566
1550 1549 1548 1548 1548 1547 1547 1549 1548 1548 1546 1547 1547 1545 1544 1545 1544 1544 1544 1544 1545 1546 1547 1549 1551 1553 1555 1557 1559 1561 1562 1564 1565 1566 1567 1568 1568 1569 1569 1569 1569 1568 1568 1568 1568 1567 1567 1567 1566
1550 1550 1548 1546 1547 1545 1547 1547 1547 1547 1546 1545 1544 1544 1543 1542 1541 1541 1541 1541 1542 1543 1545 1547 1549 1551 1553 1556 1557 1559 1561 1563 1564 1565 1566 1567 1568 1569 1569 1569 1568 1568 1568 1568 1568 1567 1567 1567 1566
1550 1548 1544 1544 1545 1544 1546 1546 1546 1545 1543 1542 1542 1541 1539 1538 1537 1537 1537 1538 1539 1540 1542 1544 1547 1549 1551 1554 1556 1558 1559 1561 1563 1564 1565 1566 1567 1568 1568 1568 1568 1568 1567 1567 1567 1567 1566 1566 1565
1548 1545 1544 1545 1546 1546 1545 1544 1544 1542 1539 1539 1539 1538 1537 1535 1534 1533 1534 1535 1536 1537 1539 1541 1544 1546 1549 1551 1553 1555 1557 1559 1560 1562 1563 1564 1565 1566 1566 1566 1566 1566 1566 1566 1566 1565 1565 1564 1564
1547 1545 1545 1545 1545 1545 1544 1543 1541 1540 1538 1537 1536 1534 1533 1532 1530 1530 1530 1531 1532 1533 1536 1538 1541 1543 1546 1549 1551 1553 1554 1556 1558 1559 1561 1562 1563 1563 1564 1564 1565 1565 1564 1564 1564 1563 1563 1562 1561
1545 1544 1544 1544 1544 1543 1542 1541 1540 1537 1536 1534 1533 1531 1530 1528 1527 1526 1525 1526 1527 1529 1532 1535 1538 1540 1543 1546 1548 1550 1552 1553 1555 1556 1558 1559 1560 1561 1561 1562 1562 1562 1562 1561 1561 1561 1560 1559 1558
1544 1544 1542 1541 1541 1540 1539 1537 1538 1534 1534 1533 1532 1530 1528 1526 1524 1522 1521 1522 1524 1526 1529 1532 1535 1538 1540 1542 1545 1547 1549 1550 1552 1553 1555 1556 1557 1558 1558 1558 1558 1559 1558 1558 1558 1557 1556 1555 1554
1545 1542 1538 1537 1538 1537 1538 1534 1533 1533 1533 1532 1531 1529 1527 1524 1522 1520 1519 1519 1521 1523 1526 1529 1532 1534 1537 1539 1542 1544 1546 1547 1549 1550 1551 1552 1553 1554 1554 1555 1555 1555 1554 1554 1553 1552 1551 1550 1549
1542 1539 1535 1534 1536 1536 1538 1529 1530 1532 1532 1531 1530 1529 1527 1524 1522 1519 1518 1518 1520 1521 1524 1526 1529 1531 1534 1536 1538 1540 1542 1544 1545 1546 1547 1548 1549 1550 1550 1550 1550 1550 1550 1549 1548 1547 1546 1544 1543
1538 1534 1532 1532 1534 1534 1533 1528 1528 1530 1530 1530 1529 1529 1528 1526 1523 1520 1519 1519 1520 1521 1523 1524 1527 1529 1531 1533 1535 1537 1538 1540 1541 1542 1543 1544 1544 1545 1545 1545 1545 1545 1544 1543 1542 1541 1540 1538 1537
1533 1533 1533 1531 1531 1533 1530 1526 1526 1528 1528 1528 1529 1529 1528 1526 1524 1522 1521 1521 1521 1522 1523 1524 1526 1527 1529 1531 1532 1534 1535 1536 1537 1538 1538 1539 1539 1540 1540 1539 1539 1539 1538 1537 1536 1535 1534 1532 1530
1534 1534 1532 1529 1532 1533 1527 1524 1524 1526 1527 1527 1528 1529 1529 1527 1526 1525 1524 1523 1523 1524 1524 1525 1526 1527 1529 1530 1531 1532 1533 1534 1534 1535 1535 1535 1535 1534 1534 1533 1533 1533 1531 1530 1530 1528 1526 1525 1524
1535 1534 1530 1528 1533 1532 1526 1523 1523 1525 1526 1527 1528 1529 1529 1529 1528 1527 1527 1526 1526 1526 1527 1527 1528 1528 1529 1530 1531 1532 1532 1532 1532 1532 1531 1531 1530 1530 1529 1528 1527 1526 1525 1524 1523 1522 1520 1518 1518
1533 1531 1527 1528 1530 1531 1530 1519 1521 1524 1526 1528 1529 1529 1530 1530 1529 1529 1529 1528 1528 1528 1529 1529 1529 1530 1530 1531 1531 1531 1531 1531 1530 1530 1529 1528 1526 1525 1524 1523 1522 1521 1519 1518 1517 1516 1514 1511 1511
1528 1526 1529 1531 1529 1522 1528 1517 1516 1519 1523 1526 1528 1529 1530 1530 1530 1530 1530 1530 1530 1530 1530 1531 1531 1531 1531 1531 1531 1531 1530 1530 1529 1527 1526 1525 1523 1522 1520 1519 1518 1516 1514 1512 1511 1509 1507 1505 1503
1525 1529 1530 1530 1528 1525 1524 1521 1508 1516 1518 1521 1525 1527 1529 1529 1530 1530 1530 1531 1531 1531 1531 1532 1532 1532 1531 1531 1531 1530 1529 1528 1526 1525 1523 1522 1520 1518 1517 1515 1513 1511 1509 1507 1506 1503 1501 1498 1496
1529 1530 1532 1532 1528 1524 1517 1518 1505 1508 1508 1513 1520 1525 1527 1528 1529 1530 1530 1531 1531 1532 1532 1532 1532 1531 1531 1530 1529 1528 1527 1525 1524 1522 1520 1518 1517 1515 1513 1511 1509 1507 1504 1502 1500 1497 1494 1492 1489
1527 1524 1524 1523 1522 1514 1520 1519 1502 1499 1503 1508 1515 1521 1525 1527 1528 1529 1530 1530 1531 1531 1531 1531 1531 1531 1530 1529 1527 1526 1525 1523 1521 1519 1517 1515 1513 1511 1509 1506 1504 1501 1499 1496 1493 1490 1487 1484 1481
1520 1518 1519 1518 1513 1511 1521 1514 1497 1503 1507 1509 1513 1518 1522 1524 1526 1527 1528 1529 1530 1530 1530 1530 1530 1529 1528 1527 1525 1524 1522 1520 1518 1516 1513 1511 1509 1506 1504 1501 1498 1495 1492 1489 1485 1482 1479 1476 1472
1518 1517 1515 1515 1520 1517 1505 1503 1498 1504 1506 1509 1511 1515 1518 1521 1523 1525 1526 1527 1528 1528 1528 1528 1528 1527 1526 1524 1523 1521 1519 1517 1514 1512 1509 1507 1504 1501 1498 1495 1492 1488 1485 1481 1477 1473 1470 1467 1463
1515 1513 1518 1516 1516 1513 1504 1501 1493 1497 1500 1504 1507 1510 1514 1518 1520 1522 1523 1524 1525 1526 1526 1526 1525 1524 1523 1521 1519 1517 1515 1513 1510 1508 1505 1502 1499 1496 1492 1489 1485 1481 1477 1473 1469 1465 1461 1457 1453
1516 1517 1512 1510 1511 1510 1507 1496 1489 1491 1494 1498 1502 1506 1510 1514 1516 1519 1520 1522 1523 1523 1523 1523 1522 1521 1520 1518 1516 1514 1511 1509 1506 1503 1500 1497 1493 1490 1486 1481 1477 1473 1469 1465 1460 1456 1452 1447 1443
1507 1505 1507 1509 1509 1509 1504 1496 1491 1493 1494 1497 1500 1504 1508 1511 1514 1516 1518 1519 1520 1520 1520 1520 1519 1518 1516 1514 1512 1510 1507 1504 1501 1498 1495 1491 1487 1483 1478 1474 1469 1464 1460 1455 1451 1446 1442 1437 1433